Location: Zagreb
(45.8000°N, 16.0000°E)
Time: 02:06:13
(UTC+02:00)

Transit 2A Rocket - Pass Details

Date: 25 January 2022
Orbit: 592 x 909 km, 66.7° (Epoch: 26 May)

Event Time Altitude Azimuth Distance (km) Brightness Sun altitude
Rises 19:16:56 0° 223° (SW) 3,480 9.0 -25.2°
Reaches altitude 10° 19:19:26 10° 227° (SW) 2,567 8.3 -25.6°
Maximum altitude 19:25:24 61° 307° (NW) 1,025 5.7 -26.7°
Enters shadow 19:27:56 35° 13° (NNE) 1,434 6.2 -27.1°
Drops below altitude 10° 19:31:25 10° 28° (NNE) 2,586 - -27.7°
Sets 19:33:58 0° 32° (NNE) 3,509 - -28.2°
